Starlink 31341

operational
NORAD ID: 59155 Int'l Des: 2024-044 Owner: SPXS Country: US Constellation: starlink
LEOCIRCULAR

About Starlink 31341

Description loading...

Live Position

Loading 3D Globe...

Upcoming Passes

Altitude History

Altitude vs Time

uPlot chart will show altitude changes over time

Two-Line Element Set

1 59155U 24044D 25257.41690571 -.00003156 00000-0 -11079-3 0 9991
2 59155 43.0023 25.3964 0001477 252.6980 107.3709 15.25922137 86579
Epoch: Sep 14, 2025 • Age: 25 hours

Current Status

Altitude 491.3 km
Velocity 7.62 km/s
Sub-Earth Point -17.18°S, 159.84°W
Launch Date Mar 4, 2024
Age 1.5 years
Type internet

Technical Details

Classification Payload
Mass 730.00 kg
Dry Mass 700.00 kg
Total Mass 730.00 kg
Length 0.30 m
Diameter 4.10 m
Span 29.00 m
Shape Box + pan
Manufacturer SPXS
Bus Type Starlink V2M
Phase Status In Orbit
Owner/State SPXS/US

Large Constellations

Loading constellations...